TimeEDT,TemperatureF,Dew PointF,Humidity,Sea Level PressureIn,VisibilityMPH,Wind Direction,Wind SpeedMPH,Gust SpeedMPH,PrecipitationIn,Events,Conditions,WindDirDegrees,DateUTC
12:15 AM,54.7,47.8,78,30.23,10.0,Calm,Calm,-,N/A,,Overcast,0,2013-09-19 04:15:00
12:35 AM,54.5,48.2,79,30.23,10.0,Calm,Calm,-,N/A,,Overcast,0,2013-09-19 04:35:00
12:55 AM,54.5,48.4,80,30.23,10.0,Calm,Calm,-,N/A,,Overcast,0,2013-09-19 04:55:00
1:15 AM,55.4,48.2,77,30.23,10.0,Calm,Calm,-,N/A,,Overcast,0,2013-09-19 05:15:00
1:35 AM,55.0,49.1,80,30.22,10.0,Calm,Calm,-,N/A,,Overcast,0,2013-09-19 05:35:00
1:55 AM,53.1,49.1,86,30.22,10.0,Calm,Calm,-,N/A,,Overcast,0,2013-09-19 05:55:00
2:15 AM,54.3,49.3,83,30.22,10.0,Calm,Calm,-,N/A,,Overcast,0,2013-09-19 06:15:00
2:35 AM,54.7,49.3,82,30.21,10.0,Calm,Calm,-,N/A,,Overcast,0,2013-09-19 06:35:00
2:55 AM,56.3,49.1,77,30.20,10.0,Calm,Calm,-,N/A,,Overcast,0,2013-09-19 06:55:00
3:15 AM,55.8,50.2,82,30.20,10.0,Calm,Calm,-,N/A,,Overcast,0,2013-09-19 07:15:00
3:35 AM,55.0,50.2,84,30.20,10.0,Calm,Calm,-,N/A,,Overcast,0,2013-09-19 07:35:00
3:55 AM,55.6,50.2,82,30.20,10.0,Calm,Calm,-,N/A,,Overcast,0,2013-09-19 07:55:00
4:15 AM,55.4,50.0,82,30.20,10.0,Calm,Calm,-,N/A,,Overcast,0,2013-09-19 08:15:00
4:35 AM,56.5,50.2,79,30.20,10.0,Calm,Calm,-,N/A,,Overcast,0,2013-09-19 08:35:00
4:55 AM,56.3,50.9,82,30.20,10.0,Calm,Calm,-,N/A,,Overcast,0,2013-09-19 08:55:00
5:15 AM,56.8,50.5,79,30.19,10.0,Calm,Calm,-,N/A,,Overcast,0,2013-09-19 09:15:00
5:35 AM,56.3,51.3,83,30.19,10.0,Calm,Calm,-,N/A,,Overcast,0,2013-09-19 09:35:00
5:55 AM,55.9,51.3,84,30.19,10.0,Calm,Calm,-,N/A,,Overcast,0,2013-09-19 09:55:00
6:15 AM,54.5,51.1,88,30.19,10.0,Calm,Calm,-,N/A,,Overcast,0,2013-09-19 10:15:00
6:35 AM,54.7,50.5,86,30.19,10.0,Calm,Calm,-,N/A,,Mostly Cloudy,0,2013-09-19 10:35:00
6:55 AM,52.7,49.5,89,30.19,10.0,Calm,Calm,-,N/A,,Scattered Clouds,0,2013-09-19 10:55:00
7:15 AM,52.9,50.2,91,30.19,7.0,Calm,Calm,-,N/A,,Clear,0,2013-09-19 11:15:00
7:35 AM,51.6,48.9,90,30.20,10.0,Calm,Calm,-,N/A,,Clear,0,2013-09-19 11:35:00
7:55 AM,53.4,50.4,89,30.20,10.0,Calm,Calm,-,N/A,,Clear,0,2013-09-19 11:55:00
8:15 AM,54.9,51.1,87,30.20,10.0,Calm,Calm,-,N/A,,Clear,0,2013-09-19 12:15:00
8:35 AM,57.4,51.4,81,30.20,10.0,Calm,Calm,-,N/A,,Clear,0,2013-09-19 12:35:00
8:55 AM,60.8,52.3,74,30.20,10.0,Calm,Calm,-,N/A,,Scattered Clouds,0,2013-09-19 12:55:00
9:15 AM,62.2,52.7,71,30.20,10.0,SSW,3.5,-,N/A,,Scattered Clouds,200,2013-09-19 13:15:00
9:35 AM,63.7,53.1,68,30.20,10.0,SSW,5.8,-,N/A,,Clear,210,2013-09-19 13:35:00
9:55 AM,65.3,53.6,66,30.21,10.0,SSW,3.5,-,N/A,,Clear,200,2013-09-19 13:55:00
10:15 AM,66.2,54.0,65,30.20,10.0,SW,4.6,-,N/A,,Clear,230,2013-09-19 14:15:00
10:35 AM,67.3,54.5,63,30.20,10.0,SSW,3.5,-,N/A,,Clear,200,2013-09-19 14:35:00
10:55 AM,67.6,54.7,63,30.20,10.0,SW,5.8,-,N/A,,Scattered Clouds,230,2013-09-19 14:55:00
11:15 AM,68.7,54.7,61,30.20,10.0,Calm,Calm,-,N/A,,Scattered Clouds,0,2013-09-19 15:15:00
11:35 AM,69.8,54.7,59,30.20,10.0,Calm,Calm,-,N/A,,Clear,0,2013-09-19 15:35:00
11:55 AM,70.2,55.2,59,30.19,10.0,SSW,5.8,-,N/A,,Clear,210,2013-09-19 15:55:00
12:15 PM,71.4,55.4,57,30.18,10.0,Calm,Calm,-,N/A,,Clear,0,2013-09-19 16:15:00
12:35 PM,72.7,55.4,55,30.17,10.0,SE,3.5,-,N/A,,Scattered Clouds,140,2013-09-19 16:35:00
12:55 PM,73.9,55.4,52,30.17,10.0,Calm,Calm,-,N/A,,Scattered Clouds,0,2013-09-19 16:55:00
1:15 PM,74.3,54.5,50,30.16,10.0,South,5.8,-,N/A,,Mostly Cloudy,180,2013-09-19 17:15:00
1:35 PM,73.4,54.3,51,30.16,10.0,Calm,Calm,-,N/A,,Overcast,0,2013-09-19 17:35:00
1:55 PM,73.4,53.4,49,30.14,10.0,ESE,3.5,-,N/A,,Overcast,110,2013-09-19 17:55:00
2:15 PM,74.1,53.4,48,30.14,10.0,East,5.8,-,N/A,,Mostly Cloudy,100,2013-09-19 18:15:00
2:35 PM,75.7,54.7,48,30.13,10.0,ENE,5.8,-,N/A,,Mostly Cloudy,70,2013-09-19 18:35:00
2:55 PM,75.9,55.2,49,30.13,10.0,South,5.8,-,N/A,,Scattered Clouds,170,2013-09-19 18:55:00
3:15 PM,74.3,55.2,51,30.13,10.0,ESE,4.6,-,N/A,,Scattered Clouds,120,2013-09-19 19:15:00
3:35 PM,76.5,55.6,48,30.11,10.0,SSW,6.9,-,N/A,,Mostly Cloudy,200,2013-09-19 19:35:00
3:55 PM,74.3,54.9,51,30.11,10.0,South,5.8,-,N/A,,Overcast,170,2013-09-19 19:55:00
4:15 PM,74.3,55.2,51,30.11,10.0,South,5.8,-,N/A,,Overcast,170,2013-09-19 20:15:00
4:35 PM,75.0,55.6,51,30.11,10.0,SSE,9.2,-,N/A,,Mostly Cloudy,150,2013-09-19 20:35:00
4:55 PM,74.1,55.9,53,30.12,10.0,SE,6.9,-,N/A,,Mostly Cloudy,130,2013-09-19 20:55:00
5:15 PM,72.1,56.3,57,30.12,10.0,SE,8.1,-,N/A,,Overcast,130,2013-09-19 21:15:00
5:35 PM,72.0,56.5,58,30.12,10.0,SSE,6.9,-,N/A,,Overcast,150,2013-09-19 21:35:00
5:55 PM,72.5,56.7,57,30.12,10.0,SSE,10.4,-,N/A,,Mostly Cloudy,150,2013-09-19 21:55:00
6:15 PM,70.7,56.7,61,30.12,10.0,SSE,6.9,-,N/A,,Scattered Clouds,160,2013-09-19 22:15:00
6:35 PM,69.6,56.7,63,30.12,10.0,South,5.8,-,N/A,,Scattered Clouds,170,2013-09-19 22:35:00
6:55 PM,68.7,56.5,65,30.13,10.0,South,3.5,-,N/A,,Mostly Cloudy,180,2013-09-19 22:55:00
7:15 PM,67.3,56.5,68,30.13,10.0,Calm,Calm,-,N/A,,Scattered Clouds,0,2013-09-19 23:15:00
7:35 PM,66.4,56.5,70,30.13,10.0,Calm,Calm,-,N/A,,Scattered Clouds,0,2013-09-19 23:35:00
7:55 PM,66.2,56.5,71,30.13,10.0,Calm,Calm,-,N/A,,Mostly Cloudy,0,2013-09-19 23:55:00
8:15 PM,65.5,56.5,73,30.13,10.0,Calm,Calm,-,N/A,,Mostly Cloudy,0,2013-09-20 00:15:00
8:35 PM,64.4,56.5,75,30.13,10.0,Calm,Calm,-,N/A,,Scattered Clouds,0,2013-09-20 00:35:00
8:55 PM,64.0,55.9,75,30.13,10.0,Calm,Calm,-,N/A,,Clear,0,2013-09-20 00:55:00
9:15 PM,62.4,55.9,79,30.13,10.0,Calm,Calm,-,N/A,,Clear,0,2013-09-20 01:15:00
9:35 PM,61.0,55.8,83,30.13,10.0,Calm,Calm,-,N/A,,Scattered Clouds,0,2013-09-20 01:35:00
9:55 PM,61.7,55.8,81,30.13,10.0,Calm,Calm,-,N/A,,Mostly Cloudy,0,2013-09-20 01:55:00
10:15 PM,60.8,55.8,83,30.13,10.0,Calm,Calm,-,N/A,,Overcast,0,2013-09-20 02:15:00
10:35 PM,59.5,55.2,86,30.13,10.0,Calm,Calm,-,N/A,,Overcast,0,2013-09-20 02:35:00
10:55 PM,61.7,55.8,81,30.12,10.0,Calm,Calm,-,N/A,,Overcast,0,2013-09-20 02:55:00
11:15 PM,61.5,56.5,83,30.12,10.0,Calm,Calm,-,N/A,,Overcast,0,2013-09-20 03:15:00
11:35 PM,60.8,56.5,86,30.12,10.0,Calm,Calm,-,N/A,,Overcast,0,2013-09-20 03:35:00
11:55 PM,60.1,55.9,86,30.12,10.0,Calm,Calm,-,N/A,,Overcast,0,2013-09-20 03:55:00